[[{"header":{"parameterUnit":"m.s-1","parameterCategory":1,"la1":30.2991,"la2":30.254,"lo1":-89.0895,"lo2":-89.0444,"dy":0.0017,"dx":0.0017,"nx":28,"ny":28,"refTime":"2025-01-24T03:00:00:Z","depth":0,"parameterNumber":2,"parameterNumberName":"U-component_of_WINDS"},"data":[0,0,0,0,0,0,0,0,0,0,0,0,0,0,0,0,0,0,0,0,0,0,0,0,0,0,0,0,0,0,0,0,0,0,0,0,0,0,0,0,0,0,0,0,0,0,0,0,0,0,0,0,0,0,0,0,0,0,4.4038,4.4039,0,4.4133,4.4134,4.4135,4.4125,4.4124,4.4122,4.4121,4.422,4.4224,4.4228,0,0,0,0,0,0,0,0,0,0,0,0,0,4.3851,4.3854,4.4038,4.4039,4.404,4.4132,4.4134,4.4135,4.4125,4.4124,4.4122,4.412,4.4219,4.4224,4.4229,0,0,0,0,0,0,0,0,0,0,0,0,0,4.3937,4.3855,4.4037,4.4046,4.4048,4.4132,4.4134,4.4135,4.4126,4.4124,4.4121,4.4119,4.4218,4.4223,4.4229,4.4312,0,0,4.4248,4.4251,0,0,0,0,0,0,0,0,4.3932,4.3944,4.4044,4.4046,4.4048,4.4115,4.4104,4.4195,4.4126,4.4096,4.4121,4.4118,4.4187,4.4196,4.4218,4.4316,4.4321,4.4249,4.4252,4.4255,4.4257,0,0,0,0,0,0,0,4.3926,4.394,4.4075,4.4045,4.4048,4.4046,4.4056,4.4121,4.4153,4.4099,4.4098,4.411,4.4188,4.4213,4.4221,4.4322,4.4248,4.4254,4.4257,4.426,4.4493,4.4496,0,0,0,0,0,0,4.3918,4.3935,4.4072,4.4078,4.3983,4.4052,4.4063,4.4096,4.4152,4.4159,4.4111,4.4109,4.4203,4.4214,4.4224,4.4325,4.4255,4.426,4.4264,4.4491,4.4494,4.4497,0,0,0,0,0,0,4.3914,4.393,4.4068,4.4007,4.4024,4.4057,4.4094,4.4099,4.4123,4.4162,4.4168,4.4131,4.4202,4.4216,4.429,4.4328,4.4263,4.4269,4.4488,4.4492,4.4495,4.4527,0,0,0,0,0,0,4.3909,4.3929,4.396,4.4007,4.4027,4.4132,4.4097,4.4102,4.4133,4.4131,4.4182,4.4188,4.4201,4.4281,4.4296,4.4336,4.4273,4.4484,4.449,4.4494,4.4523,4.4532,4.4539,0,0,0,0,0,4.3902,4.3965,4.3961,4.3978,4.4067,4.4134,4.4146,4.4159,4.4136,4.4169,4.4193,4.4186,4.4321,4.4289,4.4306,4.4348,4.4482,4.4488,4.4494,4.4519,4.453,4.4539,0,0,0,0,0,0,4.3922,4.3972,4.3968,4.4048,4.4087,4.4132,4.4173,4.417,4.4217,4.4212,4.4228,4.4239,4.4315,4.4338,4.4301,4.4431,4.4399,4.4408,4.4413,4.4423,4.4431,4.4424,4.4278,0,0,0,0,0,4.3936,4.3986,4.4027,4.4094,4.4113,4.414,4.417,4.4177,4.4218,4.4234,4.4265,4.4306,4.4357,4.4391,4.4441,4.4526,4.4537,4.4563,4.4571,4.4578,4.4586,4.4634,4.4646,4.4516,4.4516,4.4515,0,0,4.3965,4.3998,4.4029,4.4099,4.4129,4.4182,4.4154,4.421,4.425,4.4243,4.4315,4.4339,4.4386,4.4466,4.4503,4.4488,4.4624,4.4585,4.459,4.4595,4.4641,4.4653,4.4664,4.4519,4.4519,4.4518,0,0,4.4045,4.4075,4.4134,4.4166,4.4212,4.423,4.4244,4.429,4.4305,4.4378,4.4374,4.4422,4.451,4.4544,4.4573,4.4666,4.4661,4.4682,4.4724,4.4771,4.4781,4.479,4.4824,4.4836,4.4689,4.469,4.469,0,4.4076,4.4154,4.4166,4.4223,4.4254,4.425,4.4311,4.4341,4.4402,4.4424,4.4406,4.4518,4.4549,4.4637,4.466,4.4683,4.4701,4.4676,4.4778,4.4788,4.4797,4.4829,4.4842,4.4692,4.4692,4.4691,4.4691,0,4.419,4.4244,4.4287,4.4345,4.4381,4.444,4.4461,4.4496,4.45,4.452,4.4594,4.4631,4.4689,4.471,4.4714,4.48,4.4789,4.4775,4.4743,4.4811,4.4842,4.4855,4.4695,4.4694,4.4693,4.4693,0,0,4.4286,4.435,4.4366,4.4392,4.4444,4.4486,4.4545,4.4601,4.4631,4.4673,4.4724,4.4799,4.4786,4.4819,4.4827,4.4867,4.494,4.4848,4.485,4.4865,4.5037,4.5049,4.5063,4.4937,4.4939,4.4941,4.5034,0,4.4373,4.4476,4.4488,4.4581,4.4632,4.4629,4.468,4.4718,4.4738,4.4784,4.4806,4.486,4.4838,4.4858,4.4897,4.4923,4.4975,4.4916,4.4986,4.4988,4.4975,4.5079,4.5091,4.5177,4.5046,4.5048,4.505,0,4.4487,4.4532,4.463,4.4674,4.4696,4.4742,4.4794,4.4838,4.4881,4.4893,4.4929,4.4932,4.4994,4.496,4.5046,4.5005,4.5034,4.5051,4.5055,4.5063,4.5024,4.5091,4.5204,4.5218,4.5069,4.5067,4.5066,0,4.4549,4.4634,4.4704,4.4726,4.478,4.4813,4.4836,4.4877,4.491,4.4955,4.4977,4.503,4.5059,4.51,4.5118,4.509,4.5203,4.517,4.5216,4.5215,4.5241,4.5239,4.5361,4.5257,4.5257,4.5257,4.5257,0,4.4645,4.4705,4.4732,4.4775,4.4843,4.4857,4.4923,4.4946,4.4982,4.503,4.503,4.5076,4.5095,4.5144,4.5158,4.5228,4.5241,4.5253,4.5256,4.5254,4.5252,4.5274,4.5269,4.526,4.526,4.5259,4.5258,0,4.4727,4.4747,4.4823,4.4867,4.4879,4.4927,4.4966,4.5008,4.5026,4.5087,4.5103,4.5133,4.519,4.5211,4.5281,4.529,4.5372,4.537,4.5357,4.5358,4.5404,4.5399,4.5545,4.5565,4.5447,4.5448,4.5449,0,4.4787,4.4833,4.4882,4.4914,4.4939,4.499,4.5023,4.5039,4.5074,4.5126,4.5162,4.5219,4.5265,4.5357,4.5385,4.5439,4.5439,4.5486,4.5447,4.5443,4.5441,4.5439,4.5444,4.5494,4.5495,4.5496,4.5497,0,4.4893,4.4901,4.4948,4.4999,4.5039,4.508,4.512,4.5147,4.5168,4.5207,4.5265,4.5301,4.5372,4.5429,4.5484,4.551,4.5508,4.5509,4.5522,4.5521,4.5512,4.5519,4.5378,4.5506,4.5505,4.5504,4.5504,4.5503,4.4967,4.5008,4.5049,4.5102,4.5134,4.5171,4.5213,4.5237,4.5285,4.5344,4.535,4.5412,4.5455,4.5528,4.5556,4.5606,4.5593,4.5613,4.5618,4.5623,4.5627,4.5503,4.5616,4.5616,4.5615,4.5615,4.5615,0,4.5074,4.51,4.5148,4.5204,4.5246,4.5239,4.5283,4.5319,4.5374,4.5413,4.5458,4.5525,4.558,4.5613,4.5668,4.5702,4.5702,4.5716,4.5715,4.5721,4.5634,4.5618,4.5715,4.5715,4.5715,4.5715,4.5715,4.5715,4.5135,4.5204,4.5216,4.5302,4.5327,4.5388,4.5414,4.5449,4.548,4.5555,4.56,4.5621,4.5658,4.5716,4.5766,4.5774,4.5795,4.581,4.5818,4.5737,4.5727,4.5717,4.5701,4.5814,4.5815,4.59,4.5901,4.5901]},{"header":{"parameterUnit":"m.s-1","parameterCategory":1,"la1":30.2991,"la2":30.254,"lo1":-89.0895,"lo2":-89.0444,"dy":0.0017,"dx":0.0017,"nx":28,"ny":28,"refTime":"2025-01-24T03:00:00:Z","depth":0,"parameterNumber":3,"parameterNumberName":"V-component_of_WINDS"},"data":[0,0,0,0,0,0,0,0,0,0,0,0,0,0,0,0,0,0,0,0,0,0,0,0,0,0,0,0,0,0,0,0,0,0,0,0,0,0,0,0,0,0,0,0,0,0,0,0,0,0,0,0,0,0,0,0,0,0,-1.6768,-1.6767,0,-1.6674,-1.6673,-1.6672,-1.6634,-1.6634,-1.6634,-1.6635,-1.6537,-1.6534,-1.6532,0,0,0,0,0,0,0,0,0,0,0,0,0,-1.6917,-1.6914,-1.6768,-1.6767,-1.6766,-1.6674,-1.6673,-1.6672,-1.6634,-1.6634,-1.6634,-1.6635,-1.6538,-1.6535,-1.6531,0,0,0,0,0,0,0,0,0,0,0,0,0,-1.684,-1.6913,-1.6768,-1.6736,-1.6732,-1.6674,-1.6673,-1.6671,-1.6634,-1.6634,-1.6634,-1.6635,-1.6539,-1.6535,-1.6531,-1.6498,0,0,-1.6518,-1.6516,0,0,0,0,0,0,0,0,-1.6845,-1.6835,-1.6742,-1.6738,-1.6734,-1.6666,-1.6689,-1.6613,-1.6634,-1.6671,-1.6635,-1.6635,-1.658,-1.6572,-1.6554,-1.6494,-1.6489,-1.6518,-1.6515,-1.6513,-1.6512,0,0,0,0,0,0,0,-1.685,-1.6839,-1.6731,-1.6741,-1.6735,-1.6727,-1.6716,-1.6675,-1.6625,-1.6668,-1.6665,-1.6654,-1.6577,-1.6558,-1.6551,-1.6488,-1.6518,-1.6514,-1.6511,-1.651,-1.64,-1.64,0,0,0,0,0,0,-1.6861,-1.6843,-1.6734,-1.6728,-1.6791,-1.6724,-1.6712,-1.6687,-1.6625,-1.6616,-1.6654,-1.6653,-1.6565,-1.6556,-1.6548,-1.6507,-1.6513,-1.6509,-1.6507,-1.64,-1.64,-1.6399,0,0,0,0,0,0,-1.6864,-1.6851,-1.6737,-1.6785,-1.677,-1.6721,-1.6693,-1.6685,-1.6666,-1.6615,-1.6605,-1.6643,-1.6565,-1.6554,-1.6512,-1.6503,-1.6508,-1.6504,-1.6401,-1.64,-1.64,-1.6425,0,0,0,0,0,0,-1.6868,-1.6853,-1.6839,-1.6785,-1.6767,-1.6703,-1.6693,-1.6683,-1.6659,-1.6656,-1.6602,-1.6593,-1.6564,-1.6518,-1.6507,-1.6497,-1.65,-1.6401,-1.6401,-1.64,-1.6424,-1.6425,-1.6425,0,0,0,0,0,-1.6874,-1.6849,-1.6838,-1.6825,-1.6749,-1.6702,-1.6692,-1.6659,-1.6658,-1.6644,-1.6612,-1.6595,-1.6506,-1.6514,-1.6502,-1.649,-1.6402,-1.6401,-1.64,-1.6424,-1.6425,-1.6425,0,0,0,0,0,0,-1.6901,-1.6841,-1.6829,-1.6785,-1.6749,-1.6696,-1.6677,-1.6661,-1.6624,-1.6623,-1.6584,-1.6572,-1.6534,-1.6508,-1.6518,-1.6457,-1.6453,-1.6449,-1.6475,-1.6476,-1.6476,-1.6483,-1.6497,0,0,0,0,0,-1.6903,-1.687,-1.6818,-1.6785,-1.6768,-1.6726,-1.6704,-1.6683,-1.6644,-1.6628,-1.6592,-1.6555,-1.6519,-1.6496,-1.646,-1.6421,-1.641,-1.6407,-1.6408,-1.6409,-1.6406,-1.6386,-1.6385,-1.6396,-1.6397,-1.6397,0,0,-1.6905,-1.6867,-1.6848,-1.679,-1.6759,-1.6727,-1.6713,-1.6678,-1.6654,-1.6622,-1.6581,-1.6555,-1.6511,-1.6471,-1.6452,-1.6448,-1.6401,-1.6408,-1.6409,-1.6405,-1.6385,-1.6384,-1.6383,-1.6396,-1.6396,-1.6396,0,0,-1.6891,-1.6859,-1.6829,-1.68,-1.6755,-1.6728,-1.6721,-1.6671,-1.6652,-1.661,-1.6587,-1.6558,-1.6496,-1.6467,-1.6444,-1.6424,-1.6407,-1.6413,-1.6416,-1.6397,-1.6396,-1.6395,-1.639,-1.6388,-1.6411,-1.6411,-1.6411,0,-1.6899,-1.6848,-1.6816,-1.6783,-1.6759,-1.6731,-1.6701,-1.6674,-1.6619,-1.6604,-1.6601,-1.6525,-1.6493,-1.6448,-1.6444,-1.6425,-1.6417,-1.6419,-1.6399,-1.6398,-1.6397,-1.6391,-1.6389,-1.6412,-1.6412,-1.6412,-1.6412,0,-1.6861,-1.6827,-1.6808,-1.6757,-1.6731,-1.67,-1.6664,-1.6642,-1.6624,-1.6598,-1.6557,-1.6519,-1.6476,-1.6464,-1.6445,-1.6416,-1.6416,-1.6407,-1.6401,-1.6397,-1.6391,-1.6389,-1.6414,-1.6413,-1.6413,-1.6413,0,0,-1.6859,-1.6794,-1.6788,-1.6766,-1.6716,-1.6689,-1.6658,-1.6617,-1.66,-1.6564,-1.6538,-1.6488,-1.6481,-1.6455,-1.6433,-1.6416,-1.6406,-1.6409,-1.6408,-1.6411,-1.6374,-1.6382,-1.638,-1.6395,-1.6395,-1.6394,-1.6379,0,-1.684,-1.6783,-1.6755,-1.671,-1.6679,-1.6655,-1.6628,-1.6595,-1.6571,-1.6542,-1.6515,-1.6481,-1.6473,-1.6457,-1.644,-1.6411,-1.6398,-1.6412,-1.6371,-1.637,-1.6383,-1.6376,-1.6383,-1.637,-1.6376,-1.6375,-1.6375,0,-1.6808,-1.6775,-1.6728,-1.6685,-1.6671,-1.6647,-1.6609,-1.6581,-1.6545,-1.6529,-1.6502,-1.6481,-1.6449,-1.6448,-1.6404,-1.6414,-1.6396,-1.638,-1.6379,-1.6373,-1.6372,-1.6371,-1.6364,-1.6363,-1.6371,-1.6371,-1.6371,0,-1.6813,-1.6756,-1.6721,-1.6703,-1.6652,-1.6636,-1.6614,-1.6578,-1.6557,-1.6524,-1.651,-1.6473,-1.6453,-1.6426,-1.6397,-1.6399,-1.6357,-1.6353,-1.6344,-1.6345,-1.6335,-1.6336,-1.6326,-1.6324,-1.6324,-1.6324,-1.6324,0,-1.6794,-1.6767,-1.6724,-1.6702,-1.6672,-1.6641,-1.6611,-1.6587,-1.6556,-1.6531,-1.6507,-1.6484,-1.6447,-1.642,-1.6397,-1.6365,-1.6356,-1.6343,-1.6337,-1.6345,-1.6347,-1.6332,-1.6333,-1.6323,-1.6323,-1.6324,-1.6324,0,-1.6794,-1.6764,-1.6724,-1.668,-1.6669,-1.6648,-1.6611,-1.659,-1.6566,-1.6534,-1.6525,-1.6488,-1.6454,-1.6423,-1.6378,-1.6364,-1.6332,-1.6324,-1.6345,-1.6342,-1.6335,-1.6336,-1.6315,-1.6311,-1.6312,-1.6312,-1.6312,0,-1.6783,-1.6762,-1.6717,-1.6698,-1.6677,-1.6647,-1.6626,-1.6596,-1.6575,-1.6534,-1.6519,-1.6484,-1.6455,-1.6403,-1.6372,-1.6339,-1.6331,-1.6326,-1.6325,-1.6335,-1.6332,-1.6333,-1.6332,-1.6326,-1.6326,-1.6326,-1.6326,0,-1.6769,-1.6756,-1.6726,-1.6692,-1.6668,-1.6639,-1.661,-1.6596,-1.6561,-1.6539,-1.6505,-1.6483,-1.6439,-1.6406,-1.6369,-1.6347,-1.6331,-1.6327,-1.6323,-1.6331,-1.6344,-1.6338,-1.6347,-1.6327,-1.6327,-1.6327,-1.6327,-1.6327,-1.6763,-1.6744,-1.671,-1.6679,-1.6654,-1.6628,-1.6608,-1.6582,-1.6554,-1.6516,-1.6501,-1.6468,-1.6435,-1.6385,-1.6364,-1.6338,-1.6334,-1.6328,-1.6327,-1.6326,-1.6328,-1.6349,-1.6331,-1.6331,-1.6331,-1.6331,-1.6331,0,-1.6748,-1.6726,-1.6697,-1.6658,-1.6635,-1.6623,-1.6591,-1.6572,-1.6543,-1.6514,-1.6487,-1.645,-1.6419,-1.6387,-1.6354,-1.634,-1.6332,-1.6332,-1.6333,-1.6329,-1.6333,-1.634,-1.634,-1.634,-1.634,-1.634,-1.634,-1.634,-1.6737,-1.6705,-1.6689,-1.6646,-1.6624,-1.6592,-1.6575,-1.6552,-1.6529,-1.6489,-1.6464,-1.6444,-1.6414,-1.638,-1.6351,-1.6343,-1.6332,-1.6334,-1.6324,-1.6328,-1.6328,-1.6327,-1.6334,-1.6332,-1.6332,-1.6322,-1.6322,-1.6322]}]]